Location: Roanoke
(37.2710°N, 79.9420°W)
Time: 20:16:56
(UTC-05:00)

Courier 1B Rocket - Pass Details

Date: 19 November 2019
Orbit: 920 x 1202 km, 28.2° (Epoch: 05 December)

Event Time Altitude Azimuth Distance (km) Brightness Sun altitude
Rises 14:44:50 0° 231° (SW) 3,749 9.5 21.9°
Reaches altitude 10° 14:47:48 10° 220° (SW) 2,844 9.7 21.5°
Maximum altitude 14:53:42 30° 162° (SSE) 1,854 7.1 20.7°
Drops below altitude 10° 14:59:58 10° 105° (ESE) 3,024 7.4 19.9°
Sets 15:03:13 0° 95° (E) 4,024 7.9 19.4°
